Location: A�t Lahcen
(32.8243°N, 5.4246°W)
Time: 02:00:39
(UTC+00:00)

Lacrosse 5 rocket - Pass Details

Date: 27 January 2021
Orbit: 465 x 630 km, 57.0° (Epoch: 27 February)

Event Time Altitude Azimuth Distance (km) Brightness Sun altitude
Exits shadow 04:40:06 14° 85° (E) 1,459 4.2 -33.5°
Drops below altitude 10° 04:40:51 10° 93° (E) 1,667 4.6 -33.4°
Sets 04:43:19 0° 110° (ESE) 2,521 5.7 -32.9°
